Location: Monroe
(41.9160°N, 83.3980°W)
Time: 17:30:08
(UTC-04:00)

Amateur Radio Satellites - All Passes

Search period start: 16 September 2014 17:00
Search period end: 17 September 2014 17:00
Location: Monroe, 41.9160°N, 83.3980°W

Satellite Date Start Highest point End Downlink Frequencies (MHz)
Time Altitude Azimuth
Gurwin Techsat 1B 16 Sep 17:17:11 17:18:28 11° 272° (W) 17:19:46 435.225 FM
Uosat F 16 Sep 17:17:37 17:22:35 69° 258° (WSW) 17:27:35 435.120 FM
Hamsat 16 Sep 17:30:01 17:32:43 16° 65° (ENE) 17:35:26 145.90 MHz
Saudisat 1A 16 Sep 17:35:21 17:35:50 10° 107° (ESE) 17:36:20 436.775 MHz
AO-7 16 Sep 17:36:31 17:44:35 54° 258° (WSW) 17:52:42 29.400 - 29.500 MHz
JAS-2 16 Sep 17:52:20 17:57:07 35° 68° (ENE) 18:01:46 435.800 - 435.900 CW/SSB, 435.910 FM
OPAL 16 Sep 18:06:28 18:11:31 50° 102° (ESE) 18:16:29 ?
MaSat-1 16 Sep 18:11:30 18:13:23 13° 45° (NE) 18:15:09 437.345 MHz
Hamsat 16 Sep 19:04:04 19:08:17 49° 261° (W) 19:12:32 145.90 MHz
Saudisat 1A 16 Sep 19:10:19 19:14:43 83° 303° (WNW) 19:19:10 436.775 MHz
JAS-2 16 Sep 19:37:48 19:42:19 27° 264° (W) 19:46:42 435.800 - 435.900 CW/SSB, 435.910 FM
SO-67 16 Sep 19:44:28 19:47:53 64° 76° (ENE) 19:51:19 435.3500 MHz FM
OPAL 16 Sep 19:46:07 19:50:02 22° 299° (WNW) 19:53:54 ?
MaSat-1 16 Sep 19:46:52 19:50:46 60° 248° (WSW) 19:54:04 437.345 MHz
KITSAT 1 16 Sep 19:47:59 19:54:32 28° 106° (ESE) 20:01:06 435.175 FM
HO-68 16 Sep 20:12:14 20:17:37 24° 57° (ENE) 20:23:01 435.675 MHz FM
STRAND 1 16 Sep 20:20:31 20:25:38 67° 102° (ESE) 20:30:45 ?
PCSat 16 Sep 20:43:55 20:44:43 10° 33° (NNE) 20:45:31 145.825 MHz
Saudisat 1A 16 Sep 20:52:45 20:55:00 14° 323° (NW) 20:57:15 436.775 MHz
AO-40 16 Sep 20:59:04 02:38:19 41° 183° (S) 10:06:09 Beacon 2401.320
KITSAT 1 16 Sep 21:41:16 21:49:18 67° 305° (NW) 21:57:23 435.175 FM
FUNcube-1 16 Sep 21:45:11 21:47:03 13° 61° (ENE) 21:48:55 145.950 - 145.970 MHz USB
Sapphire 16 Sep 21:57:11 22:01:52 28° 48° (NE) 22:06:31 437.095 MHz 1200 baud AX-25 AFSK
HO-68 16 Sep 21:57:32 22:04:39 73° 256° (WSW) 22:11:49 435.675 MHz FM
STRAND 1 16 Sep 22:01:09 22:04:16 17° 299° (WNW) 22:07:23 ?
Oscar 11 16 Sep 22:01:35 22:05:42 43° 72° (ENE) 22:09:51 145.825 FM, Beacon 2401.500 USB
UKube-1 16 Sep 22:14:47 22:19:07 89° 73° (ENE) 22:23:28 145.840 MHz, 145.915 MHz
PCSat 16 Sep 22:24:18 22:29:33 47° 54° (NE) 22:34:46 145.825 MHz
FUNcube-1 16 Sep 23:18:28 23:22:48 70° 259° (WSW) 23:27:17 145.950 - 145.970 MHz USB
Oscar 11 16 Sep 23:39:11 23:42:05 17° 268° (W) 23:44:59 145.825 FM, Beacon 2401.500 USB
Sapphire 16 Sep 23:40:18 23:45:29 47° 247° (WSW) 23:50:38 437.095 MHz 1200 baud AX-25 AFSK
KITSAT 1 16 Sep 23:40:36 23:46:23 21° 329° (NNW) 23:52:11 435.175 FM
HO-68 16 Sep 23:51:26 23:53:31 11° 274° (W) 23:55:36 435.675 MHz FM
SO-50 17 Sep 00:01:15 00:05:41 70° 121° (ESE) 00:10:16 436.795 FM
PCSat 17 Sep 00:08:18 00:12:40 25° 252° (WSW) 00:17:01 145.825 MHz
KITSAT 1 17 Sep 01:43:11 01:45:42 12° 360° (N) 01:48:12 435.175 FM
SO-50 17 Sep 01:43:38 01:46:46 18° 320° (NW) 01:49:57 436.795 FM
UOSAT-12 17 Sep 01:56:01 02:00:38 83° 121° (ESE) 02:05:22 437.025 FM, 437.400 FM
Saudisat 1A 17 Sep 01:58:37 02:00:56 14° 37° (NE) 02:03:15 436.775 MHz
Oscar 16 17 Sep 02:02:39 02:06:06 18° 91° (E) 02:09:31 437.025 USB, Beacon 2401.1428
ITAMSAT 1 17 Sep 02:39:53 02:43:06 16° 91° (E) 02:46:18 435.822 SSB
AO-Echo 17 Sep 02:39:58 02:43:17 18° 93° (E) 02:46:38 ?
Uribyol 2 17 Sep 02:44:30 02:48:13 19° 92° (E) 02:51:55 436.500 FM
JAS-1B 17 Sep 02:46:34 02:50:56 22° 92° (E) 02:55:14 435.800 - 435.900 CW/SSB
Oscar 19 17 Sep 03:02:21 03:07:30 63° 101° (ESE) 03:12:35 437.125 CW, 437.150 USB
AO-27 17 Sep 03:12:56 03:17:40 34° 97° (E) 03:22:22 436.795 MHz FM
Saudisat 1A 17 Sep 03:36:45 03:41:12 85° 57° (ENE) 03:45:36 436.775 MHz
UOSAT-12 17 Sep 03:38:22 03:41:24 17° 322° (NW) 03:44:28 437.025 FM, 437.400 FM
KITSAT 1 17 Sep 03:39:20 03:45:03 20° 30° (NNE) 03:50:43 435.175 FM
Oscar 16 17 Sep 03:40:43 03:45:48 57° 288° (WNW) 03:50:50 437.025 USB, Beacon 2401.1428
OPAL 17 Sep 03:46:08 03:48:37 14° 56° (NE) 03:51:07 ?
Gurwin Techsat 1B 17 Sep 03:48:40 03:53:32 35° 97° (E) 03:58:21 435.225 FM
ISS 17 Sep 04:03:44 04:06:37 28° 136° (SE) 04:09:31 145.800 FM
AO-Echo 17 Sep 04:17:40 04:22:18 49° 288° (WNW) 04:27:02 ?
ITAMSAT 1 17 Sep 04:17:52 04:23:00 62° 288° (WNW) 04:28:08 435.822 SSB
Uribyol 2 17 Sep 04:22:55 04:27:59 53° 289° (WNW) 04:33:02 436.500 FM
TMSAT-1 17 Sep 04:27:25 04:32:40 59° 101° (E) 04:37:53 436.925 FM
JAS-1B 17 Sep 04:36:26 04:42:02 47° 291° (WNW) 04:47:25 435.800 - 435.900 CW/SSB
Oscar 19 17 Sep 04:42:58 04:46:19 18° 299° (WNW) 04:49:38 437.125 CW, 437.150 USB
AO-27 17 Sep 04:52:34 04:57:05 31° 294° (WNW) 05:01:35 436.795 MHz FM
RS-15 17 Sep 05:00:42 05:11:03 48° 111° (ESE) 05:21:15 29.354 - 29.394 USB, Beacon 29.352 USB
PANSAT 17 Sep 05:14:00 05:15:00 11° 178° (S) 05:16:00 not established
OPAL 17 Sep 05:21:34 05:26:44 88° 254° (WSW) 05:32:00 ?
Uosat F 17 Sep 05:25:10 05:29:46 35° 98° (E) 05:34:21 435.120 FM
Oscar 10/S400 17 Sep 05:25:35 06:11:27 14° 254° (WSW) 07:26:28 145.825 - 145.975 CW/USB, Beacon 145.810 USB
Gurwin Techsat 1B 17 Sep 05:28:48 05:33:23 31° 294° (WNW) 05:37:58 435.225 FM
KITSAT 1 17 Sep 05:34:07 05:42:10 65° 55° (NE) 05:50:09 435.175 FM
AO-7 17 Sep 05:37:21 05:45:25 53° 102° (ESE) 05:53:26 29.400 - 29.500 MHz
ISS 17 Sep 05:40:06 05:43:15 39° 333° (NNW) 05:46:25 145.800 FM
STRAND 1 17 Sep 06:01:05 06:03:27 13° 59° (ENE) 06:05:49 ?
TMSAT-1 17 Sep 06:08:27 06:12:07 19° 298° (WNW) 06:15:47 436.925 FM
JAS-2 17 Sep 06:43:42 06:49:03 34° 97° (E) 06:54:58 435.800 - 435.900 CW/SSB, 435.910 FM
Hamsat 17 Sep 06:49:48 06:53:29 28° 95° (E) 06:57:07 145.90 MHz
SO-50 17 Sep 06:53:26 06:55:48 13° 35° (NE) 06:58:10 436.795 FM
Uosat F 17 Sep 07:04:11 07:08:25 28° 294° (WNW) 07:12:38 435.120 FM
OPAL 17 Sep 07:05:32 07:06:19 10° 270° (W) 07:07:06 ?
RS-15 17 Sep 07:12:36 07:23:17 53° 314° (NW) 07:33:57 29.354 - 29.394 USB, Beacon 29.352 USB
ISS 17 Sep 07:18:26 07:20:39 16° 352° (N) 07:22:52 145.800 FM
KITSAT 1 17 Sep 07:30:20 07:36:59 29° 254° (WSW) 07:43:36 435.175 FM
AO-7 17 Sep 07:30:34 07:37:55 37° 301° (WNW) 07:45:17 29.400 - 29.500 MHz
STRAND 1 17 Sep 07:36:51 07:41:56 83° 256° (WSW) 07:47:04 ?
Hamsat 17 Sep 08:25:50 08:29:21 25° 292° (WNW) 08:32:50 145.90 MHz
JAS-2 17 Sep 08:28:46 08:34:08 39° 291° (WNW) 08:40:07 435.800 - 435.900 CW/SSB, 435.910 FM
SO-50 17 Sep 08:32:25 08:37:14 70° 55° (NE) 08:42:04 436.795 FM
SO-67 17 Sep 08:40:36 08:44:04 75° 101° (ESE) 08:47:30 435.3500 MHz FM
UOSAT-12 17 Sep 08:46:39 08:49:12 14° 36° (NE) 08:51:44 437.025 FM, 437.400 FM
ISS 17 Sep 08:55:52 08:58:19 19° 13° (NNE) 09:00:45 145.800 FM
HO-68 17 Sep 09:25:57 09:31:12 21° 92° (E) 09:36:25 435.675 MHz FM
RS-15 17 Sep 09:30:41 09:38:57 23° 345° (NNW) 09:47:18 29.354 - 29.394 USB, Beacon 29.352 USB
MaSat-1 17 Sep 09:32:00 09:36:50 50° 111° (ESE) 09:41:40 437.345 MHz
UKube-1 17 Sep 10:04:07 10:06:35 15° 92° (E) 10:09:02 145.840 MHz, 145.915 MHz
SO-50 17 Sep 10:14:34 10:17:15 15° 251° (WSW) 10:19:58 436.795 FM
UOSAT-12 17 Sep 10:25:25 10:30:10 77° 56° (NE) 10:34:49 437.025 FM, 437.400 FM
ISS 17 Sep 10:32:13 10:35:32 62° 32° (NNE) 10:38:50 145.800 FM
FUNcube-1 17 Sep 11:07:49 11:11:33 24° 94° (E) 11:15:14 145.950 - 145.970 MHz USB
MaSat-1 17 Sep 11:09:47 11:13:53 24° 308° (NW) 11:17:54 437.345 MHz
HO-68 17 Sep 11:12:21 11:19:30 72° 290° (WNW) 11:26:38 435.675 MHz FM
Oscar 11 17 Sep 11:24:40 11:29:03 85° 103° (ESE) 11:33:23 145.825 FM, Beacon 2401.500 USB
UKube-1 17 Sep 11:38:50 11:43:04 50° 288° (WNW) 11:47:16 145.840 MHz, 145.915 MHz
RS-15 17 Sep 11:47:44 11:56:30 26° 21° (NNE) 12:05:25 29.354 - 29.394 USB, Beacon 29.352 USB
UOSAT-12 17 Sep 12:07:41 12:09:39 13° 253° (WSW) 12:11:36 437.025 FM, 437.400 FM
ISS 17 Sep 12:09:48 12:11:56 16° 228° (SW) 12:14:03 145.800 FM
Sapphire 17 Sep 12:40:27 12:44:27 21° 106° (ESE) 12:48:27 437.095 MHz 1200 baud AX-25 AFSK
FUNcube-1 17 Sep 12:43:46 12:47:59 35° 290° (WNW) 12:52:09 145.950 - 145.970 MHz USB
Oscar 19 17 Sep 12:43:50 12:46:06 13° 58° (ENE) 12:48:21 437.125 CW, 437.150 USB
HO-68 17 Sep 13:02:17 13:05:59 15° 309° (NW) 13:09:42 435.675 MHz FM
PCSat 17 Sep 13:06:32 13:11:31 39° 111° (ESE) 13:16:32 145.825 MHz
Oscar 16 17 Sep 13:19:41 13:24:02 28° 66° (ENE) 13:28:24 437.025 USB, Beacon 2401.1428
JAS-1B 17 Sep 13:30:34 13:37:33 30° 63° (ENE) 13:43:40 435.800 - 435.900 CW/SSB
AO-Echo 17 Sep 13:53:29 13:57:18 25° 66° (ENE) 14:01:06 ?
ITAMSAT 1 17 Sep 13:57:59 14:02:14 27° 65° (ENE) 14:06:30 435.822 SSB
RS-15 17 Sep 14:00:35 14:11:36 64° 51° (NE) 14:23:01 29.354 - 29.394 USB, Beacon 29.352 USB
Uribyol 2 17 Sep 14:02:34 14:07:02 31° 66° (ENE) 14:11:32 436.500 FM
TMSAT-1 17 Sep 14:12:17 14:14:41 13° 58° (ENE) 14:17:05 436.925 FM
Oscar 19 17 Sep 14:19:28 14:24:40 88° 256° (WSW) 14:29:55 437.125 CW, 437.150 USB
Sapphire 17 Sep 14:22:09 14:27:26 55° 304° (NW) 14:32:47 437.095 MHz 1200 baud AX-25 AFSK
AO-27 17 Sep 14:31:23 14:36:23 54° 71° (ENE) 14:41:26 436.795 MHz FM
AO-7 17 Sep 14:48:19 14:53:16 18° 48° (NE) 14:58:11 29.400 - 29.500 MHz
PCSat 17 Sep 14:50:09 14:54:59 32° 310° (NW) 14:59:52 145.825 MHz
Oscar 16 17 Sep 14:58:25 15:03:13 38° 263° (W) 15:08:03 437.025 USB, Beacon 2401.1428
Gurwin Techsat 1B 17 Sep 15:10:02 15:15:12 57° 72° (ENE) 15:20:24 435.225 FM
JAS-1B 17 Sep 15:19:00 15:27:47 64° 258° (WSW) 15:35:12 435.800 - 435.900 CW/SSB
Oscar 10/S400 17 Sep 15:30:09 15:45:04 22° 146° (SE) 15:59:48 145.825 - 145.975 CW/USB, Beacon 145.810 USB
AO-Echo 17 Sep 15:31:34 15:35:56 35° 262° (W) 15:40:15 ?
ITAMSAT 1 17 Sep 15:36:44 15:41:32 39° 262° (W) 15:46:23 435.822 SSB
Uribyol 2 17 Sep 15:41:48 15:46:26 33° 263° (W) 15:51:06 436.500 FM
TMSAT-1 17 Sep 15:48:33 15:53:50 88° 256° (WSW) 15:59:10 436.925 FM
Oscar 19 17 Sep 16:04:11 16:04:43 10° 273° (W) 16:05:16 437.125 CW, 437.150 USB
Sapphire 17 Sep 16:10:17 16:12:07 12° 325° (NW) 16:13:58 437.095 MHz 1200 baud AX-25 AFSK
AO-27 17 Sep 16:12:40 16:16:14 19° 268° (W) 16:19:49 436.795 MHz FM
RS-15 17 Sep 16:13:31 16:23:26 39° 252° (WSW) 16:33:45 29.354 - 29.394 USB, Beacon 29.352 USB
AO-7 17 Sep 16:36:24 16:44:39 72° 68° (ENE) 16:52:54 29.400 - 29.500 MHz
Uosat F 17 Sep 16:38:43 16:43:32 51° 71° (ENE) 16:48:22 435.120 FM
Gurwin Techsat 1B 17 Sep 16:51:56 16:55:32 18° 269° (W) 16:59:08 435.225 FM
